Weather in Opatija

Croatia     45°20′21″N   14°18′22″E
temp.,
°C
wind,
m/s
gust,
m/s
humid.,
%
clouds,
%
prec.,
mm/h
press.,
hPa
HPBL,
m
21 april, wed
wed2123:00+9nne118556 0.2 101744
02:00+8nnw118563 0.2 101840
05:00+7ne11855 0.0 101873
08:00+9ene118441 0.0 1019151
11:00+11sse237434 0.0 1020581
14:00+10se248449 0.4 1020486
17:00+11sse338122 0.7 1019450
20:00+9se129152 1.0 101963
22 april, thu
thu2223:00+9ese1292100 0.4 102057
02:00+9ene2293100 0.6 102090
05:00+9e229295 0.3 101998
08:00+10ese238866 0.5 1020317
11:00+11sse358789 0.7 1020542
14:00+11sse358569 1.6 1020419
17:00+12sse358231 0.6 1019520
20:00+10ese119213 0.9 102020
23 april, fri
fri2323:00+9nne229146 0.1 102136
02:00+8n338513 0.1 102171
05:00+8nne33855 0.0 1021101
08:00+9ne35765 0.0 1022302
11:00+13ne34575 0.0 1022566
14:00+15se125210 0.0 1021896
17:00+14ne135783 0.0 1021288
20:00+12ne34680 0.0 102255
24 april, sat
sat2423:00+10n55710 0.0 102487
02:00+9nne45720 0.0 1024128
05:00+8ne45730 0.0 1024212
08:00+10nne45640 0.0 1024301
11:00+14ne23500 0.0 1023566
14:00+15e22470 0.0 1021805
17:00+16ene34472 0.0 1020852
20:00+12ne22651 0.0 102017
25 april, sun
sun2523:00+10n4471100 0.0 102265
02:00+10n456789 0.0 102180
05:00+9n346698 0.0 102073
08:00+11nne3364100 0.0 1021110
11:00+15e23507 0.0 1021659
14:00+16sse224896 0.0 1020925
17:00+16s115453 0.0 1019442
20:00+13ne226644 0.0 101913